FW9262 Weather Reports


time (UTC)temp
C
wind
direction
speed
KPH
gust
KPH
rain 1hr
cm
rain 24hr
cm
rain mn
cm
humidity
%
barometer
mb
20260510192057 20 247 8.0 11.3 0.00 0.00 0.00 74 1016.3
20260510191554 20 327 3.2 9.7 0.00 0.00 0.00 73 1016.3
20260510191050 20 284 3.2 6.4 0.00 0.00 0.00 73 1016.3
20260510190542 21 179 8.0 11.3 0.00 0.00 0.00 71 1016.6
20260510190040 21 199 6.4 9.7 0.00 0.00 0.00 71 1016.3
20260510185536 21 220 6.4 9.7 0.00 0.00 0.00 70 1016.3
20260510185034 21 195 4.8 6.4 0.00 0.00 0.00 70 1016.3
20260510184531 21 319 3.2 6.4 0.00 0.00 0.00 73 1016.6
20260510184026 21 321 1.6 9.7 0.00 0.00 0.00 72 1016.6
20260510183522 21 309 3.2 6.4 0.00 0.00 0.00 72 1016.6
20260510183017 21 317 4.8 9.7 0.00 0.00 0.00 73 1016.3
20260510182515 21 234 4.8 9.7 0.00 0.00 0.00 72 1016.3
20260510182015 21 253 6.4 11.3 0.00 0.00 0.00 71 1016.6
20260510181513 21 282 4.8 9.7 0.00 0.00 0.00 70 1016.3
20260510181009 21 284 3.2 6.4 0.00 0.00 0.00 71 1016.3
20260510180506 21 149 3.2 4.8 0.00 0.00 0.00 70 1016.3
20260510180004 22 275 9.7 11.3 0.00 0.00 0.00 68 1016.3
20260510175459 22 151 1.6 3.2 0.00 0.00 0.00 69 1016.0
20260510174954 21 352 1.6 4.8 0.00 0.00 0.00 71 1016.3
20260510174453 21 288 3.2 6.4 0.00 0.00 0.00 70 1016.3
20260510173950 21 311 3.2 4.8 0.00 0.00 0.00 70 1016.0
20260510173445 21 178 3.2 6.4 0.00 0.00 0.00 71 1016.0
20260510172942 21 4 1.6 3.2 0.00 0.00 0.00 71 1016.3
20260510172438 21 352 1.6 4.8 0.00 0.00 0.00 70 1016.0
20260510171934 21 245 3.2 4.8 0.00 0.00 0.00 69 1016.0
20260510171431 21 267 1.6 3.2 0.00 0.00 0.00 72 1016.0
20260510170928 20 336 3.2 4.8 0.00 0.00 0.00 73 1016.0
20260510170425 20 295 3.2 4.8 0.00 0.00 0.00 73 1016.3
20260510165920 21 6 1.6 4.8 0.00 0.00 0.00 73 1016.3
20260510165416 21 348 1.6 3.2 0.00 0.00 0.00 72 1016.0
20260510164913 20 68 0.0 4.8 0.00 0.00 0.00 74 1016.0
20260510164410 20 327 1.6 4.8 0.00 0.00 0.00 75 1016.3
20260510163905 19 8 0.0 3.2 0.00 0.00 0.00 76 1016.3
20260510163401 19 318 1.6 4.8 0.00 0.00 0.00 77 1016.3
20260510162855 19 7 0.0 1.6 0.00 0.00 0.00 77 1016.0
20260510162354 19 333 1.6 3.2 0.00 0.00 0.00 77 1016.0
20260510161848 19 342 1.6 3.2 0.00 0.00 0.00 76 1016.0
20260510161344 18 344 0.0 1.6 0.00 0.00 0.00 79 1016.0
20260510160842 18 51 3.2 3.2 0.00 0.00 0.00 79 1016.0
20260510160338 18 352 1.6 3.2 0.00 0.00 0.00 80 1016.0
20260510155832 18 350 0.0 1.6 0.00 0.00 0.00 82 1016.0
20260510155330 18 31 0.0 1.6 0.00 0.00 0.00 81 1016.0
20260510154825 17 6 3.2 3.2 0.00 0.00 0.00 82 1016.0
20260510154322 17 3 1.6 1.6 0.00 0.00 0.00 83 1015.6
20260510153816 17 53 1.6 1.6 0.00 0.00 0.00 83 1016.0
20260510153312 17 59 0.0 4.8 0.00 0.00 0.00 84 1015.6
20260510152809 17 4 0.0 3.2 0.00 0.00 0.00 84 1016.0
20260510152307 17 12 1.6 4.8 0.00 0.00 0.00 84 1016.0
20260510151803 17 20 0.0 3.2 0.00 0.00 0.00 84 1016.0
20260510151300 17 26 1.6 3.2 0.00 0.00 0.00 85 1016.0
20260510150755 17 41 1.6 3.2 0.00 0.00 0.00 85 1016.0
20260510150252 17 347 0.0 0.0 0.00 0.00 0.00 85 1016.0
20260510145748 17 346 0.0 0.0 0.00 0.00 0.00 86 1015.6
20260510145245 16 349 0.0 1.6 0.00 0.00 0.00 86 1016.0
20260510144741 16 17 1.6 1.6 0.00 0.00 0.00 86 1016.0
20260510144238 16 345 0.0 0.0 0.00 0.00 0.00 87 1015.6
20260510143737 16 332 0.0 0.0 0.00 0.00 0.00 87 1016.0
20260510143234 16 346 0.0 1.6 0.00 0.00 0.00 87 1015.6
20260510142731 16 352 0.0 1.6 0.00 0.00 0.00 87 1015.6
20260510142228 16 350 0.0 3.2 0.00 0.00 0.00 88 1015.6
20260510141725 16 343 0.0 1.6 0.00 0.00 0.00 88 1015.6
20260510141223 16 354 0.0 1.6 0.00 0.00 0.00 88 1015.6
20260510140719 16 11 0.0 1.6 0.00 0.00 0.00 88 1015.3
20260510140214 16 356 0.0 1.6 0.00 0.00 0.00 88 1015.6
20260510135709 16 7 0.0 0.0 0.00 0.00 0.00 89 1015.3
20260510135205 16 352 0.0 0.0 0.00 0.00 0.00 89 1015.3
20260510134702 16 16 0.0 0.0 0.00 0.00 0.00 89 1015.3
20260510134159 16 350 0.0 1.6 0.00 0.00 0.00 89 1015.3
20260510133655 16 5 0.0 1.6 0.00 0.00 0.00 89 1014.9
20260510133151 16 357 0.0 0.0 0.00 0.00 0.00 89 1015.3
20260510132647 16 6 0.0 1.6 0.00 0.00 0.00 89 1015.3
20260510132144 16 42 3.2 4.8 0.00 0.00 0.00 90 1015.3
20260510131642 16 22 1.6 1.6 0.00 0.00 0.00 90 1015.3
20260510131139 16 351 0.0 0.0 0.00 0.00 0.00 90 1014.9
20260510130636 16 352 0.0 0.0 0.00 0.00 0.00 90 1015.3
20260510130133 16 11 1.6 1.6 0.00 0.00 0.00 90 1014.9
20260510125629 16 356 0.0 0.0 0.00 0.00 0.00 91 1015.3
20260510125126 16 349 0.0 0.0 0.00 0.00 0.00 91 1015.3
20260510124623 16 351 0.0 0.0 0.00 0.00 0.00 91 1015.3
20260510124120 16 352 0.0 0.0 0.00 0.00 0.00 91 1015.3
20260510123615 16 351 0.0 0.0 0.00 0.00 0.00 91 1015.3
20260510123111 16 351 0.0 0.0 0.00 0.00 0.00 91 1015.3
20260510122607 15 351 0.0 0.0 0.00 0.00 0.00 91 1015.3
20260510122103 15 350 0.0 0.0 0.00 0.00 0.00 91 1015.3
20260510121600 15 351 0.0 0.0 0.00 0.00 0.00 91 1015.3
20260510121057 15 351 0.0 0.0 0.00 0.00 0.00 92 1015.3
20260510120555 15 351 0.0 0.0 0.00 0.00 0.00 92 1014.9
20260510120050 15 352 0.0 0.0 0.00 0.00 0.00 92 1014.9
20260510115547 15 352 0.0 0.0 0.00 0.00 0.00 92 1014.9
20260510115044 15 12 1.6 1.6 0.00 0.00 0.00 92 1015.3
20260510114540 15 29 3.2 3.2 0.00 0.00 0.00 92 1014.9
20260510114036 15 354 0.0 0.0 0.00 0.00 0.00 92 1015.3
20260510113531 15 351 0.0 0.0 0.00 0.00 0.00 92 1015.3
20260510113029 15 351 0.0 0.0 0.00 0.00 0.00 93 1015.3
20260510112526 15 353 0.0 0.0 0.00 0.00 0.00 93 1014.9
20260510112022 15 352 0.0 0.0 0.00 0.00 0.00 93 1015.3
20260510111519 15 347 0.0 0.0 0.00 0.00 0.00 93 1014.9
20260510111015 15 349 0.0 0.0 0.00 0.00 0.00 93 1014.9
20260510110511 15 352 0.0 0.0 0.00 0.00 0.00 93 1015.3
20260510110008 15 26 1.6 3.2 0.00 0.00 0.00 93 1015.3
20260510105502 15 352 0.0 0.0 0.00 0.00 0.00 93 1014.9
20260510104958 15 350 0.0 0.0 0.00 0.00 0.00 93 1014.9
20260510104455 15 348 0.0 0.0 0.00 0.00 0.00 93 1014.9
20260510103951 15 350 0.0 0.0 0.00 0.00 0.00 93 1015.3
20260510103449 15 8 0.0 1.6 0.00 0.00 0.00 93 1014.9
20260510102944 15 4 0.0 1.6 0.00 0.00 0.00 93 1014.9
20260510102440 15 349 0.0 0.0 0.00 0.00 0.00 93 1014.9
20260510101937 15 347 0.0 0.0 0.00 0.00 0.00 93 1014.9
20260510101434 15 347 0.0 0.0 0.00 0.00 0.00 93 1014.9
20260510100933 15 340 0.0 0.0 0.00 0.00 0.00 93 1014.9
20260510100429 15 341 0.0 0.0 0.00 0.00 0.00 93 1015.3
20260510095925 15 338 0.0 0.0 0.00 0.00 0.00 93 1015.3
20260510095421 15 343 0.0 0.0 0.00 0.00 0.00 94 1015.3
20260510094920 15 336 0.0 0.0 0.00 0.00 0.00 94 1015.3
20260510094414 15 340 0.0 0.0 0.00 0.00 0.00 94 1015.3
20260510093911 15 322 1.6 3.2 0.00 0.00 0.00 94 1015.3
20260510093407 15 3 0.0 0.0 0.00 0.00 0.00 94 1015.3
20260510092904 15 27 0.0 0.0 0.00 0.00 0.00 94 1015.3
20260510092401 15 28 0.0 0.0 0.00 0.00 0.00 94 1015.3
20260510091855 15 27 0.0 0.0 0.00 0.00 0.00 94 1015.3
20260510091353 15 27 0.0 0.0 0.00 0.00 0.00 94 1015.3
20260510090849 15 27 0.0 0.0 0.00 0.00 0.00 94 1015.3
20260510090346 15 27 0.0 0.0 0.00 0.00 0.00 95 1015.6
20260510085841 15 29 0.0 0.0 0.00 0.00 0.00 95 1015.3
20260510085336 15 30 0.0 1.6 0.00 0.00 0.00 95 1015.6
20260510084832 15 6 0.0 0.0 0.00 0.00 0.00 95 1015.3
20260510084330 15 346 0.0 0.0 0.00 0.00 0.00 95 1015.3
20260510083826 15 350 0.0 0.0 0.00 0.00 0.00 95 1015.3
20260510083323 15 346 0.0 0.0 0.00 0.00 0.00 95 1015.3
20260510082818 15 341 0.0 0.0 0.00 0.00 0.00 95 1015.3
20260510082316 14 345 0.0 0.0 0.00 0.00 0.00 95 1015.3
20260510081815 14 28 1.6 1.6 0.00 0.00 0.00 95 1015.6
20260510081311 15 341 0.0 0.0 0.00 0.00 0.00 95 1016.0
20260510080807 14 346 0.0 0.0 0.00 0.00 0.00 95 1015.6
20260510080302 14 348 0.0 0.0 0.00 0.00 0.00 95 1015.6
20260510075759 14 348 0.0 0.0 0.00 0.00 0.00 95 1016.0
20260510075256 14 342 0.0 0.0 0.00 0.00 0.00 95 1016.0
20260510074753 14 345 0.0 0.0 0.00 0.00 0.00 95 1015.6
20260510074250 14 330 0.0 0.0 0.00 0.00 0.00 95 1016.0
20260510073746 14 295 0.0 0.0 0.00 0.00 0.00 95 1016.0
20260510073242 14 348 0.0 0.0 0.00 0.00 0.00 95 1016.0
20260510072737 14 342 0.0 1.6 0.00 0.00 0.00 95 1016.0
20260510072235 14 343 0.0 0.0 0.00 0.00 0.00 95 1016.0
20260510071731 14 4 0.0 0.0 0.00 0.00 0.00 95 1016.0
20260510071228 14 339 0.0 0.0 0.00 0.00 0.00 95 1016.3
20260510070726 14 334 0.0 3.2 0.00 0.00 0.00 95 1016.0
20260510070223 14 249 3.2 4.8 0.00 0.00 0.00 95 1016.0
20260510065718 14 359 0.0 1.6 0.00 0.00 0.00 95 1015.6
20260510065214 14 343 0.0 1.6 0.00 0.00 0.00 95 1015.6
20260510064711 14 32 0.0 1.6 0.00 0.00 0.00 95 1016.0
20260510064209 14 356 3.2 3.2 0.00 0.00 0.00 95 1016.0
20260510063705 14 347 0.0 1.6 0.00 0.00 0.00 95 1016.0
20260510063201 14 339 0.0 0.0 0.00 0.00 0.00 95 1016.0
20260510062658 14 340 0.0 0.0 0.00 0.00 0.00 95 1016.0
20260510062154 14 315 0.0 1.6 0.00 0.00 0.00 95 1015.6
20260510061649 14 338 1.6 1.6 0.00 0.00 0.00 95 1016.0
20260510061147 14 344 0.0 0.0 0.00 0.00 0.00 95 1016.0
20260510060643 14 356 0.0 1.6 0.00 0.00 0.00 95 1016.0
20260510060139 14 10 0.0 0.0 0.00 0.00 0.00 95 1016.0
20260510055636 14 356 0.0 0.0 0.00 0.00 0.00 95 1016.0
20260510055134 14 340 0.0 0.0 0.00 0.00 0.00 95 1016.0
20260510054629 14 349 0.0 0.0 0.00 0.00 0.00 95 1016.0
20260510054125 14 339 0.0 1.6 0.00 0.00 0.00 95 1016.0
20260510053625 14 341 0.0 1.6 0.00 0.00 0.00 94 1016.0
20260510053121 14 328 0.0 0.0 0.00 0.00 0.00 94 1016.0
20260510052617 14 338 0.0 1.6 0.00 0.00 0.00 94 1016.0
20260510052114 14 341 0.0 0.0 0.00 0.00 0.00 94 1016.0
20260510051609 14 328 0.0 0.0 0.00 0.00 0.00 94 1016.0
20260510051107 14 343 0.0 1.6 0.00 0.00 0.00 94 1016.0
20260510050604 14 351 0.0 1.6 0.00 0.00 0.00 94 1016.0
20260510050101 14 344 0.0 3.2 0.00 0.00 0.00 94 1016.0
20260510045558 14 329 0.0 3.2 0.00 0.00 0.00 94 1016.0
20260510045053 14 339 0.0 3.2 0.00 0.00 0.00 94 1016.0
20260510044550 15 334 0.0 4.8 0.00 0.00 0.00 94 1016.0
20260510044048 15 314 0.0 0.0 0.00 0.00 0.00 94 1016.0
20260510043543 15 340 0.0 0.0 0.00 0.00 0.00 94 1016.0
20260510043039 15 334 0.0 0.0 0.00 0.00 0.00 94 1016.0
20260510042533 15 330 0.0 3.2 0.00 0.00 0.00 94 1015.6
20260510042028 15 334 0.0 1.6 0.00 0.00 0.00 94 1016.0
20260510041526 15 329 0.0 0.0 0.00 0.00 0.00 94 1015.6
20260510041023 15 276 0.0 0.0 0.00 0.00 0.00 94 1015.6
20260510040519 15 189 0.0 0.0 0.00 0.00 0.00 94 1015.6
20260510040015 15 334 1.6 4.8 0.00 0.00 0.00 94 1015.6
20260510035512 14 338 0.0 1.6 0.00 0.00 0.00 94 1015.3
20260510035011 14 270 1.6 4.8 0.00 0.00 0.00 94 1015.3
20260510034510 14 317 1.6 3.2 0.00 0.00 0.00 94 1015.3
20260510034006 15 266 3.2 4.8 0.00 0.00 0.00 93 1014.9
20260510033502 15 336 0.0 3.2 0.00 0.00 0.00 93 1014.9
20260510033000 15 326 3.2 4.8 0.00 0.00 0.00 93 1015.3
20260510032457 15 195 6.4 9.7 0.00 0.00 0.00 93 1015.3
20260510031951 15 293 1.6 3.2 0.00 0.00 0.00 93 1015.3
20260510031447 15 264 1.6 3.2 0.00 0.00 0.00 92 1014.9
20260510030943 15 295 4.8 6.4 0.00 0.00 0.00 92 1014.9
20260510030438 15 308 1.6 3.2 0.00 0.00 0.00 92 1014.9
20260510025936 15 340 0.0 3.2 0.00 0.00 0.00 92 1014.6
20260510025433 15 339 1.6 4.8 0.00 0.00 0.00 92 1014.6
20260510024931 15 292 0.0 0.0 0.00 0.00 0.00 92 1014.6
20260510024427 15 342 0.0 3.2 0.00 0.00 0.00 92 1014.6
20260510023923 15 267 1.6 4.8 0.00 0.00 0.00 92 1014.6
20260510023419 15 294 3.2 4.8 0.00 0.00 0.00 91 1014.6
20260510022917 15 325 1.6 4.8 0.00 0.00 0.00 91 1014.6
20260510022415 15 304 1.6 3.2 0.00 0.00 0.00 91 1014.6
20260510021914 15 278 1.6 3.2 0.00 0.00 0.00 91 1014.6
20260510021413 15 338 0.0 3.2 0.00 0.00 0.00 91 1014.3
20260510020909 15 286 1.6 3.2 0.00 0.00 0.00 90 1014.3
20260510020404 16 254 3.2 6.4 0.00 0.00 0.00 89 1014.3
20260510015900 16 338 3.2 4.8 0.00 0.00 0.00 89 1014.3
20260510015355 16 231 3.2 3.2 0.00 0.00 0.00 89 1014.3
20260510014851 16 255 4.8 6.4 0.00 0.00 0.00 89 1014.3
20260510014348 16 324 0.0 4.8 0.00 0.00 0.00 89 1014.3
20260510013844 16 309 3.2 9.7 0.00 0.00 0.00 89 1014.3
20260510013340 16 250 3.2 11.3 0.00 0.00 0.00 89 1014.6
20260510012836 16 255 3.2 6.4 0.00 0.00 0.00 88 1014.3
20260510012335 16 209 4.8 6.4 0.00 0.00 0.00 88 1014.3
20260510011831 16 235 4.8 4.8 0.00 0.00 0.00 87 1014.3
20260510011326 16 336 1.6 6.4 0.00 0.00 0.00 87 1014.3
20260510010823 16 218 4.8 6.4 0.00 0.00 0.00 87 1014.3
20260510010320 16 288 3.2 4.8 0.00 0.00 0.00 87 1014.3
20260510005817 16 288 1.6 6.4 0.00 0.00 0.00 87 1014.3
20260510005313 17 291 1.6 4.8 0.00 0.00 0.00 87 1014.3
20260510004811 16 339 1.6 6.4 0.00 0.00 0.00 87 1013.9
20260510004308 17 277 6.4 11.3 0.00 0.00 0.00 87 1014.3
20260510003805 17 267 6.4 9.7 0.00 0.00 0.00 86 1014.3
20260510003302 17 266 6.4 9.7 0.00 0.00 0.00 85 1014.3
20260510002801 17 239 6.4 11.3 0.00 0.00 0.00 85 1014.3
20260510002259 17 298 1.6 9.7 0.00 0.00 0.00 84 1014.3
20260510001755 17 280 6.4 9.7 0.00 0.00 0.00 83 1014.6
20260510001253 17 346 4.8 9.7 0.00 0.00 0.00 83 1014.3
20260510000748 17 303 1.6 6.4 0.00 0.00 0.00 84 1014.3
20260510000248 17 282 3.2 11.3 0.00 0.00 0.00 84 1014.3
20260509235744 18 236 4.8 9.7 0.00 0.00 0.00 83 1014.3
20260509235240 18 354 1.6 9.7 0.00 0.00 0.00 83 1014.3
20260509234735 18 305 4.8 9.7 0.00 0.00 0.00 83 1014.3
20260509234233 18 355 3.2 6.4 0.00 0.00 0.00 83 1014.3
20260509233731 18 292 6.4 11.3 0.00 0.00 0.00 81 1014.3
20260509233228 18 302 4.8 11.3 0.00 0.00 0.00 80 1014.3
20260509232724 18 291 1.6 9.7 0.00 0.00 0.00 80 1014.3
20260509232221 18 278 3.2 4.8 0.00 0.00 0.00 80 1014.3
20260509231718 18 245 4.8 11.3 0.00 0.00 0.00 80 1014.3
20260509231215 18 217 8.0 11.3 0.00 0.00 0.00 79 1014.3
20260509230713 19 286 8.0 11.3 0.00 0.00 0.00 78 1014.3
20260509230209 18 98 1.6 11.3 0.00 0.00 0.00 80 1014.3
20260509225705 20 180 6.4 9.7 0.00 0.00 0.00 76 1014.3
20260509225201 20 240 4.8 11.3 0.00 0.00 0.00 76 1014.3
20260509224656 20 284 4.8 11.3 0.00 0.00 0.00 74 1014.6
20260509224154 20 279 6.4 9.7 0.00 0.00 0.00 76 1014.6
20260509223650 20 257 9.7 12.9 0.00 0.00 0.00 76 1014.6
20260509223148 20 249 3.2 9.7 0.00 0.00 0.00 75 1014.6
20260509222644 20 341 3.2 12.9 0.00 0.00 0.00 76 1014.6
20260509222140 20 271 3.2 9.7 0.00 0.00 0.00 76 1014.6
20260509221636 20 273 4.8 9.7 0.00 0.00 0.00 76 1014.9
20260509221132 20 2 6.4 11.3 0.00 0.00 0.00 75 1014.9
20260509220628 20 278 6.4 12.9 0.00 0.00 0.00 76 1014.9
20260509220124 20 268 8.0 12.9 0.00 0.00 0.00 74 1014.9
20260509215620 21 265 1.6 9.7 0.00 0.00 0.00 73 1014.9
20260509215117 20 319 3.2 9.7 0.00 0.00 0.00 74 1015.3
20260509214614 20 318 1.6 9.7 0.00 0.00 0.00 75 1014.9
20260509214111 20 200 6.4 9.7 0.00 0.00 0.00 74 1014.9
20260509213607 20 255 8.0 9.7 0.00 0.00 0.00 76 1014.9
20260509213104 20 307 6.4 11.3 0.00 0.00 0.00 74 1014.9
20260509212601 21 244 3.2 4.8 0.00 0.00 0.00 72 1015.3
20260509212058 21 279 4.8 11.3 0.00 0.00 0.00 72 1015.3
20260509211554 20 41 4.8 12.9 0.00 0.00 0.00 73 1015.3
20260509211050 21 287 6.4 9.7 0.00 0.00 0.00 72 1015.3
20260509210548 21 220 6.4 9.7 0.00 0.00 0.00 72 1015.3
20260509210044 21 267 6.4 6.4 0.00 0.00 0.00 72 1015.3
20260509205544 21 287 6.4 9.7 0.00 0.00 0.00 71 1015.6
20260509205039 21 178 3.2 9.7 0.00 0.00 0.00 73 1015.6
20260509204536 20 321 1.6 11.3 0.00 0.00 0.00 74 1015.6
20260509204032 21 255 3.2 12.9 0.00 0.00 0.00 72 1015.6
20260509203528 21 253 4.8 9.7 0.00 0.00 0.00 73 1015.6
20260509203027 20 219 3.2 12.9 0.00 0.00 0.00 74 1016.0
20260509202521 21 272 4.8 11.3 0.00 0.00 0.00 74 1016.0
20260509202017 21 262 6.4 11.3 0.00 0.00 0.00 73 1015.6
20260509201512 21 248 8.0 11.3 0.00 0.00 0.00 70 1016.0
20260509201009 21 219 3.2 9.7 0.00 0.00 0.00 71 1015.6
20260509200504 21 258 3.2 9.7 0.00 0.00 0.00 73 1016.0
20260509200001 20 296 4.8 9.7 0.00 0.00 0.00 74 1016.0
20260509195456 21 269 6.4 9.7 0.00 0.00 0.00 73 1016.0
20260509194955 21 245 4.8 9.7 0.00 0.00 0.00 72 1016.0
20260509194451 21 214 1.6 6.4 0.00 0.00 0.00 74 1016.0
20260509193949 21 291 4.8 9.7 0.00 0.00 0.00 72 1016.0
20260509193448 21 234 1.6 9.7 0.00 0.00 0.00 74 1016.0
20260509192945 20 234 6.4 9.7 0.00 0.00 0.00 74 1016.0
20260509192442 20 204 8.0 12.9 0.00 0.00 0.00 74 1016.0